sat.trackr.live / text

‹ back to catalog

SITRO-AIS-60

NORAD 67260 · 2025-313N

PAYLOAD ACTIVE UNKNOWN

§ Identity

Operator
Country
CIS
Launch date
2025-12-28
Launch site
VOSTO
Launch vehicle
Mass (kg)
RCS (m²)

External: N2YO · Heavens-Above · Gunter

§ Orbital elements

Epoch: 2026-09-20T14:38:49.856064Z

Period
94.54 min
Inclination
97.3870°
Eccentricity
0.0014005
Mean motion
15.23207619 rev/d
Perigee alt
486.5 km
Apogee alt
505.8 km
Semi-major
6,874.3 km
B*
1.8865e-4
RAAN
336.5979°
Arg perigee
34.9376°
Mean anomaly
325.2777°
Rev number
4,046

§ Raw data

SITRO-AIS-601 67260U 25313N   26263.61029926  .00004404  00000+0  18865-3 0  99912 67260  97.3870 336.5979 0014005  34.9376 325.2777 15.23207619 40464

JSON: /api/v1/satellites/67260 · /tle

For live sub-satellite position, see the globe view (requires WebGL).

§ Visibility from observer

Set your observer location to see the next 7 days of passes ≥ 10°. The values pass through the URL so the page stays shareable.

No JS? Fill the form by hand. The geolocation button needs JavaScript.